Flag for Germany Weather past 2 weeks in Plauen, Saxony, Germany

Now
36 °F

Overcast.


Feels Like: 31 °F
Forecast: 39 / 45 °F
Wind: 6 mph from West

Location: Hof

Current Time: Dec 21, 2014 at 6:46:58 PM

Latest Report: Dec 21, 2014 at 6:00 PM


Visibility: 19 mi

Pressure: 30.35 "Hg

Humidity: 89%

Dew point: 33 °F

Location of PlauenLocation

Historic Weather in Plauen — Graph

°F

Plauen temperature yesterday

Maximum temperature yesterday: 40 °F (at 12:00 AM)
Minimum temperature yesterday: 34 °F (at 5:00 AM)
Average temperature yesterday: 36 °F

Past Weeks' High & Low Weather Summary

 TemperatureHumidityPressure
High50 °F (Dec 19, 12:00 AM)100% (Dec 6, 9:00 PM)30.49 "Hg (Dec 6, 9:00 PM)
Low26 °F (Dec 9, 8:00 PM)70% (Dec 15, 2:00 PM)29.64 "Hg (Dec 12, 9:00 PM)
Average37 °F93%30.03 "Hg
* Reported Dec 6 6:00 PM — Dec 21 6:00 PM, Plauen, Weather by CustomWeather, © 2014

Note: Actual official high and low records may vary slightly from our data, if they occured in-between our weather recording intervals... More about our weather records

Advertising

Plauen weather history for previous 24 hours

 ConditionsComfort  
Time TempWeatherWind HumidityBarometerVisibility
6:00 PM
Dec 21
36 °FOvercast.6 mph89%30.35 "Hg19 mi
5:00 PM36 °FDrizzle. Overcast.7 mph87%30.35 "Hg19 mi
3:00 PM36 °FDrizzle. Overcast.5 mph89%30.38 "Hg12 mi
2:00 PM36 °FOvercast.5 mph86%30.39 "Hg17 mi
1:00 PM36 °FLow clouds.5 mph87%30.40 "Hg16 mi
12:00 PM36 °FLow clouds.6 mph89%30.42 "Hg11 mi
11:00 AM35 °FOvercast.7 mph85%30.44 "Hg12 mi
9:00 AM34 °FOvercast.8 mph90%30.41 "Hg11 mi
8:00 AM34 °FOvercast.7 mph90%30.38 "Hg14 mi
7:00 AM33 °FPassing clouds.8 mph88%30.38 "Hg14 mi
6:00 AM33 °FPassing clouds.6 mph86%30.37 "Hg17 mi
5:00 AM34 °FPassing clouds.7 mph87%30.34 "Hg19 mi
3:00 AM33 °FPassing clouds.5 mph88%30.30 "Hg18 mi
2:00 AM34 °FPassing clouds.5 mph87%30.27 "Hg22 mi
1:00 AM33 °FPassing clouds.6 mph90%30.25 "Hg19 mi
12:00 AM34 °FOvercast.5 mph87%30.23 "Hg31 mi
11:00 PM
Dec 20
35 °FOvercast.6 mph88%30.19 "Hg37 mi
9:00 PM36 °FLight freezing rain. Low clouds.7 mph91%30.11 "Hg10 mi
8:00 PM36 °FLow clouds.8 mph92%30.10 "Hg37 mi
7:00 PM36 °FRain. Low clouds.9 mph90%30.05 "Hg4 mi
6:00 PM36 °FDrizzle. Low clouds.8 mph89%30.04 "Hg18 mi
Weather by CustomWeather, © 2014

See weather overviewHow to use our weather pages